Dalton, GA

6:39 AM EST on February 24, 2018 (GMT -0500)
Dalton Municipal

Weather History for KDNN - January, 2013

Change the Weather History Date:

Monday, January 14, 2013

  Actual Average Record
Temperature  
Mean Temperature 50 °F -  
Max Temperature 60 °F 47 °F 75 °F (1960)
Min Temperature 39 °F 28 °F 11 °F (1981)
Degree Days  
Heating Degree Days 16    
Moisture  
Dew Point 44 °F    
Average Humidity 100    
Maximum Humidity 100    
Minimum Humidity 100    
Precipitation  
Precipitation 0.05 in - - ()
Sea Level Pressure  
Sea Level Pressure 30.14 in    
Wind  
Wind Speed 8 mph (NNW)    
Max Wind Speed 17 mph    
Max Gust Speed 24 mph    
Visibility 7 miles    
Events Rain    
Averages and records for this station are not official NWS values.
T = Trace of Precipitation, MM = Missing Value Source: NWS Daily Summary

Daily Weather History Graph

Daily Weather History Graph

Search for Another Location

Airport or City:

Trip Planner

Search our weather history database for the weather conditions in past years. The results will help you decide how hot, cold, wet, or windy it might be!

Date:

Astronomy

Jan. 14, 2013 Rise Set
Actual Time 7:46 AM EST 5:51 PM EST
Civil Twilight 7:19 AM EST 6:18 PM EST
Nautical Twilight 6:48 AM EST 6:49 PM EST
Astronomical Twilight 6:17 AM EST 7:19 PM EST
Moon 9:29 AM EST (1/14) 9:24 PM EST (1/14)
Length of Visible Light 10h 59m
Length of Day
10h 04m
Waxing Crescent, 11% of the Moon is Illuminated
Jan 14
Waxing Crescent
Jan 18
First Quarter
Jan 26
Full
Feb 3
Last Quarter
Feb 10
New

Hourly Weather History & Observations

Time (EST) Temp. Windchill Dew Point Humidity Pressure Visibility Wind Dir Wind Speed Gust Speed Precip Events Conditions
12:15 AM 60.8 °F - 60.8 °F 100% 30.04 in 10.0 mi Calm Calm - N/A Rain Rain
12:35 AM 60.8 °F - 60.8 °F 100% 30.05 in 10.0 mi Calm Calm - N/A   Overcast
1:15 AM 60.8 °F - 60.8 °F 100% 30.05 in 4.0 mi Calm Calm - 0.01 in Rain Heavy Rain
1:35 AM 60.8 °F - 60.8 °F 100% 30.05 in 7.0 mi Calm Calm - 0.01 in Rain Rain
1:55 AM 55.4 °F - 55.4 °F 100% 30.06 in 10.0 mi North 8.1 mph 19.6 mph 0.01 in Rain Light Rain
2:15 AM 51.8 °F - 51.8 °F 100% 30.07 in 10.0 mi NNW 13.8 mph 20.7 mph N/A Rain Light Rain
2:35 AM 50.0 °F - 50.0 °F 100% 30.09 in 10.0 mi North 13.8 mph 20.7 mph N/A Rain Light Rain
2:55 AM 48.2 °F - 48.2 °F 100% 30.09 in 10.0 mi NNW 13.8 mph - N/A Rain Light Rain
3:15 AM 46.4 °F 42.4 °F 46.4 °F 100% 30.09 in 7.0 mi NNW 8.1 mph - N/A   Drizzle
3:55 AM 46.4 °F 41.9 °F 46.4 °F 100% 30.10 in 7.0 mi NNW 9.2 mph 19.6 mph N/A   Heavy Drizzle
4:15 AM 46.4 °F 40.7 °F 46.4 °F 100% 30.09 in 7.0 mi North 12.7 mph 16.1 mph N/A Rain Rain
4:35 AM 44.6 °F 38.4 °F 44.6 °F 100% 30.09 in 7.0 mi NNW 12.7 mph - N/A Rain Rain
4:55 AM 44.6 °F 38.8 °F 44.6 °F 100% 30.09 in 5.0 mi NNW 11.5 mph - N/A   Drizzle
5:15 AM 44.6 °F 38.4 °F 44.6 °F 100% 30.08 in 7.0 mi NNW 12.7 mph - N/A   Light Drizzle
5:35 AM 44.6 °F 38.4 °F 44.6 °F 100% 30.10 in 10.0 mi NNW 12.7 mph - N/A   Overcast
5:55 AM 44.6 °F 38.4 °F 44.6 °F 100% 30.09 in 10.0 mi North 12.7 mph 20.7 mph N/A   Drizzle
6:15 AM 44.6 °F 38.4 °F 44.6 °F 100% 30.10 in 10.0 mi NNW 12.7 mph 17.3 mph N/A   Drizzle
6:35 AM 44.6 °F 38.8 °F 44.6 °F 100% 30.10 in 10.0 mi NNW 11.5 mph - N/A   Overcast
6:55 AM 44.6 °F 38.4 °F 44.6 °F 100% 30.10 in 10.0 mi North 12.7 mph 18.4 mph N/A   Overcast
7:15 AM 44.6 °F 38.4 °F 44.6 °F 100% 30.11 in 10.0 mi North 12.7 mph 18.4 mph N/A Rain Light Rain
7:35 AM 44.6 °F 38.8 °F 44.6 °F 100% 30.12 in 5.0 mi NNW 11.5 mph - N/A Rain Heavy Rain
7:55 AM 44.6 °F 39.2 °F 44.6 °F 100% 30.13 in 10.0 mi NNW 10.4 mph - N/A Rain Light Rain
8:15 AM 44.6 °F 38.1 °F 44.6 °F 100% 30.14 in 4.0 mi NNW 13.8 mph - N/A   Unknown
8:35 AM 44.6 °F 38.4 °F 44.6 °F 100% 30.15 in 2.0 mi NNW 12.7 mph 20.7 mph N/A   Unknown
8:55 AM 44.6 °F 39.2 °F 44.6 °F 100% 30.16 in 7.0 mi North 10.4 mph - N/A Rain Light Rain
9:15 AM 44.6 °F 38.1 °F 44.6 °F 100% 30.17 in 5.0 mi NNW 13.8 mph 20.7 mph N/A Rain Rain
9:35 AM 44.6 °F 37.8 °F 44.6 °F 100% 30.17 in 5.0 mi NNW 15.0 mph 23.0 mph 0.01 in Rain Light Rain
9:55 AM 44.6 °F 38.4 °F 44.6 °F 100% 30.17 in 4.0 mi NNW 12.7 mph 17.3 mph 0.01 in Rain Light Rain
10:15 AM 42.8 °F 35.4 °F 42.8 °F 100% 30.17 in 5.0 mi North 15.0 mph 21.9 mph N/A Rain Light Rain
10:35 AM 42.8 °F 37.5 °F 42.8 °F 100% 30.17 in 5.0 mi NNW 9.2 mph 17.3 mph N/A Rain Rain
10:55 AM 42.8 °F 37.5 °F 42.8 °F 100% 30.16 in 4.0 mi NNW 9.2 mph - N/A Rain Rain
11:15 AM 42.8 °F 36.6 °F 42.8 °F 100% 30.17 in 5.0 mi NNW 11.5 mph 16.1 mph N/A Rain Rain
11:35 AM 42.8 °F 38.0 °F 42.8 °F 100% 30.15 in 1.2 mi North 8.1 mph - 0.01 in   Unknown
11:55 AM 42.8 °F 37.0 °F 42.8 °F 100% 30.15 in 7.0 mi NNW 10.4 mph - 0.01 in Rain Rain
12:15 PM 42.8 °F 38.0 °F 42.8 °F 100% 30.14 in 5.0 mi North 8.1 mph - N/A Rain Rain
12:35 PM 42.8 °F 37.5 °F 42.8 °F 100% 30.12 in 5.0 mi North 9.2 mph - N/A Rain Rain
12:55 PM 42.8 °F 37.5 °F 42.8 °F 100% 30.12 in 7.0 mi NNW 9.2 mph - N/A Rain Rain
1:15 PM 42.8 °F 38.6 °F 42.8 °F 100% 30.10 in 5.0 mi North 6.9 mph - N/A Rain Light Rain
1:35 PM 42.8 °F 39.3 °F 42.8 °F 100% 30.11 in 5.0 mi NNW 5.8 mph - 0.01 in Rain Light Rain
1:55 PM 42.8 °F 38.6 °F 42.8 °F 100% 30.10 in 3.0 mi North 6.9 mph - 0.01 in Rain Rain
2:15 PM 42.8 °F 39.3 °F 42.8 °F 100% 30.10 in 4.0 mi NNW 5.8 mph - N/A Rain Rain
2:35 PM 42.8 °F 41.1 °F 42.8 °F 100% 30.10 in 4.0 mi NNW 3.5 mph - N/A Rain Rain
3:15 PM 42.8 °F - 42.8 °F 100% 30.10 in 10.0 mi Calm Calm - 0.01 in Rain Light Rain
3:35 PM 44.6 °F 42.2 °F 44.6 °F 100% 30.12 in 10.0 mi NNW 4.6 mph - 0.01 in Rain Rain
3:55 PM 44.6 °F 39.7 °F 44.6 °F 100% 30.14 in 10.0 mi NNW 9.2 mph - 0.01 in   Overcast
4:15 PM 42.8 °F 37.0 °F 42.8 °F 100% 30.16 in 10.0 mi NNW 10.4 mph - N/A   Overcast
4:35 PM 42.8 °F 37.0 °F 42.8 °F 100% 30.17 in 10.0 mi North 10.4 mph - N/A Rain Light Rain
4:55 PM 42.8 °F 37.0 °F 42.8 °F 100% 30.16 in 10.0 mi North 10.4 mph - N/A Rain Rain
5:15 PM 42.8 °F 35.1 °F 42.8 °F 100% 30.17 in 7.0 mi NNW 16.1 mph 20.7 mph N/A Rain Light Rain
5:35 PM 42.8 °F 36.2 °F 42.8 °F 100% 30.18 in 7.0 mi North 12.7 mph 21.9 mph N/A Rain Rain
5:55 PM 42.8 °F 37.0 °F 42.8 °F 100% 30.19 in 10.0 mi NNW 10.4 mph 18.4 mph N/A   Overcast
6:15 PM 42.8 °F 35.1 °F 42.8 °F 100% 30.19 in 10.0 mi NNW 16.1 mph 21.9 mph N/A   Overcast
6:35 PM 42.8 °F 34.8 °F 42.8 °F 100% 30.20 in 10.0 mi NNW 17.3 mph 23.0 mph N/A   Overcast
6:55 PM 42.8 °F 37.0 °F 42.8 °F 100% 30.22 in 10.0 mi NNW 10.4 mph 18.4 mph N/A   Overcast
7:15 PM 42.8 °F 35.1 °F 42.8 °F 100% 30.22 in 5.0 mi NNW 16.1 mph 19.6 mph N/A   Drizzle
7:35 PM 41.0 °F 33.9 °F 41.0 °F 100% 30.21 in 5.0 mi North 12.7 mph 23.0 mph N/A Rain Light Rain
7:55 PM 41.0 °F 34.7 °F 41.0 °F 100% 30.20 in 7.0 mi North 10.4 mph - N/A   Light Drizzle
8:15 PM 41.0 °F 32.5 °F 41.0 °F 100% 30.20 in 10.0 mi NNW 17.3 mph 24.2 mph N/A   Drizzle
8:35 PM 41.0 °F 33.9 °F 41.0 °F 100% 30.20 in 10.0 mi North 12.7 mph - N/A Rain Rain
8:55 PM 41.0 °F 34.7 °F 41.0 °F 100% 30.20 in 7.0 mi North 10.4 mph 18.4 mph N/A   Drizzle
9:15 PM 41.0 °F 35.8 °F 41.0 °F 100% 30.19 in 7.0 mi North 8.1 mph - N/A   Light Drizzle
9:35 PM 39.2 °F 32.0 °F 39.2 °F 100% 30.19 in 7.0 mi NNW 11.5 mph - N/A   Heavy Drizzle
9:55 PM 39.2 °F 32.5 °F 39.2 °F 100% 30.18 in 5.0 mi NNW 10.4 mph - N/A Rain Rain
10:15 PM 39.2 °F 33.0 °F 39.2 °F 100% 30.17 in 7.0 mi NNW 9.2 mph - N/A Rain Light Rain
10:35 PM 39.2 °F 35.0 °F 39.2 °F 100% 30.17 in 10.0 mi North 5.8 mph - N/A Rain Light Rain
10:55 PM 39.2 °F 34.2 °F 39.2 °F 100% 30.17 in 10.0 mi NNW 6.9 mph - N/A Rain Rain
11:15 PM 39.2 °F 33.6 °F 39.2 °F 100% 30.16 in 10.0 mi NNW 8.1 mph - N/A Rain Rain
11:35 PM 39.2 °F 34.2 °F 39.2 °F 100% 30.15 in 10.0 mi NNW 6.9 mph - N/A   Drizzle
11:55 PM 39.2 °F 35.0 °F 39.2 °F 100% 30.14 in 10.0 mi North 5.8 mph - N/A   Light Drizzle